Volver al catálogo

STARLINK-4200

ActivoComunicacionesVLEO
NORAD 52876·PAYLOAD·🇺🇸 United States

Lanzado Jun 17, 2022 desde Cape Canaveral Space Force Station

Loading…

Próximos Pases (próximas 24 horas)

TLE

ActualizadoSource: CelesTrak SupGP

Época: Sep 15, 2026, 01:40 UTC

1 52876C 22062AY  26258.06993056 -.00045208  00000+0 -14543-2 0  2588
2 52876  53.1564 230.1557 0001226  87.9711 182.2763 15.31713606    14

Sigue STARLINK-4200 en tiempo real con AllMySat

Download on the App Store